Regional Weather Roundup
Issued by NWS Midland/Odessa, TX

Home | Current Version | Previous Version | Text Only | Print | Product List | Glossary On
Versions: 1 2 3 4 5 6 7 8 9 10 11 12 13 14 15 16 17 18 19 20 21 22 23 24 25 26 27 28 29 30 31 32 33 34 35 36 37 38 39 40 41 42 43 44 45 46 47 48 49 50
000
ASUS44 KMAF 231210
RWRMAF
MIDLAND AREA WEATHER ROUNDUP
NATIONAL WEATHER SERVICE MIDLAND TX
700 AM CDT THU OCT 23 2014

...IN SOUTHWEST TEXAS AND SOUTHEAST NEW MEXICO...

CITY           SKY/WX    TMP DP  RH WIND       PRES   REMARKS
ALPINE         CLEAR     57  55  95 SW5       30.25R
ANDREWS        FOG       53  53  99 CALM      30.14R VSB 1/4
ARTESIA        NOT AVBL
BIG SPRING     CLOUDY    61  59  92 SE8       30.14F
CARLSBAD       FOG       59  58  96 CALM      30.11R VSB 1/4
DRYDEN           N/A     63  60  90 CALM      30.11R
FORT STOCKTON  CLEAR     59  57  93 SW9       30.12R
GUAD PASS      FOG       55  54  96 SW12      30.23R VSB 1/4
HOBBS          FOG       55  55 100 CALM      30.14  VSB 1/8
MARFA          CLOUDY    57  55  94 CALM      30.24R
MIDLAND AIRPK  CLOUDY    60  60 100 S8        30.13R FOG
MIDLAND INTL   CLOUDY    59  58  96 S13       30.12R FOG
ODESSA         CLOUDY    57  55  93 S7        30.13R FOG
PECOS          FOG       57  56  97 CALM      30.11R VSB 1/4
PRESIDIO       FAIR      61  58  90 N5        30.13R
SEMINOLE       FOG       56  55  99 CALM      30.15R VSB 1/4
SNYDER         MOCLDY    56  55  94 S5        30.13S
WINK           MOCLDY    54  53  97 N5        30.10R
$$
...OTHER STATIONS IN TEXAS...

CITY           SKY/WX    TMP DP  RH WIND       PRES   REMARKS
ABILENE        MOCLDY    61  56  83 S6        30.12F
AMARILLO       CLOUDY    59  57  93 SW8       30.11R
AUSTIN         CLOUDY    64  62  93 CALM      30.11R
BROWNSVILLE    CLEAR     69  67  93 NW6       30.01R
CORPUS CHRISTI MOCLDY    66  64  93 N3        30.04R
DALLAS FTW     LGT RAIN  64  55  72 SE6       30.13R
DEL RIO        MOCLDY    63  62  97 CALM      30.08S FOG
EL PASO        CLEAR     58  53  84 CALM      30.15R
HOUSTON INT    CLOUDY    61  55  81 N3        30.09R
LUBBOCK        CLEAR     51  49  92 SE3       30.12R FOG
SAN ANGELO     CLEAR     55  53  93 CALM      30.13R
SAN ANTONIO    CLOUDY    68  65  90 NW3       30.10R
WACO           CLOUDY    63  59  87 CALM      30.13R
WICHITA FALLS  NOT AVBL
$$
...OTHER LOCATIONS IN NEW MEXICO...

CITY           SKY/WX    TMP DP  RH WIND       PRES   REMARKS
ALAMAGORDO     NOT AVBL
ALBUQUERQUE    CLEAR     53  44  71 CALM      30.22R
CANNON AFB     MOCLDY    57  55  94 W9        30.14R FOG
CLOVIS         CLOUDY    57  54  88 W9        30.16S
HOLLOMAN AFB   CLEAR     50  47  88 CALM      30.16R
ROSWELL        CLOUDY    57  56  96 S5        30.12S FOG
RUIDOSO        CLEAR     48  39  71 SW7       30.29S
SANTA FE       CLEAR     42  34  73 N5        30.25R WCI  39
TRUTH OR CONSE CLEAR     53  46  77 W9        30.19R
TUCUMCARI      CLEAR     54  51  90 W9        30.10S
$$



USA.gov is the U.S. government's official web portal to all federal, state and local government web resources and services.